Terminal Aerodrome Forecast
Issued by NWS

Home | Current Version | Previous Version | Text Only | Print | Product List | Glossary On
Versions: 1 2 3 4 5 6 7 8 9 10 11 12 13 14 15 16 17 18 19 20 21 22 23 24 25 26 27 28 29 30 31 32 33 34 35 36 37 38 39 40 41 42 43 44 45 46 47 48 49
000
FTUS41 KCTP 031143
TAFBFD
TAF
KBFD 031143Z 0312/0412 20005KT P6SM BKN100 OVC250 WS020/24040KT
     FM031500 23010G18KT P6SM VCSH SCT050 BKN100
     FM031800 24010G20KT P6SM -SHRA VCTS BKN040CB
     FM040000 28006KT P6SM BKN250=

USA.gov is the U.S. government's official web portal to all federal, state and local government web resources and services.